Location: Recife
(8.0585°S, 34.8848°W)
Time: 12:54:31
(UTC-03:00)

Tiros 1 - Visible Passes

Search period start: 14 April 2026 00:00
Search period end: 24 April 2026 00:00
Orbit: 618 x 649 km, 48.4° (Epoch: 14 April)

Date Brightness Start Highest point End Pass type
(mag) Time Alt. Az. Time Alt. Az. Time Alt. Az.
14 Apr 9.4 19:02:37 10° N 19:03:26 14° N 19:03:26 14° N visible
15 Apr 9.2 19:23:15 10° NW 19:24:54 22° NNW 19:24:54 22° NNW visible
16 Apr 8.7 18:04:28 10° N 18:07:46 19° NE 18:08:58 17° ENE visible
16 Apr 9.8 19:45:09 10° WNW 19:46:25 17° WNW 19:46:25 17° WNW visible
17 Apr 10.1 04:32:40 10° SE 04:33:02 10° SE 04:33:24 10° SE visible
17 Apr 7.3 18:24:35 10° NNW 18:29:11 55° NE 18:30:31 40° ESE visible
18 Apr 8.9 04:50:47 10° S 04:54:44 28° SE 04:58:38 10° ENE visible
18 Apr 7.9 18:46:06 10° NW 18:50:39 48° SW 18:52:04 36° S visible
19 Apr 9.4 19:09:05 10° W 19:12:14 18° SW 19:13:35 16° SSW visible
20 Apr 9.3 03:52:33 10° S 03:55:56 21° SE 03:59:21 10° E visible
20 Apr 7.5 17:47:10 10° NW 17:51:52 69° SW 17:56:35 10° SSE visible
21 Apr 7.5 04:14:05 17° SSW 04:17:29 60° SE 04:21:57 10° NE visible
21 Apr 9.2 18:09:37 10° WNW 18:13:24 24° SW 18:17:13 10° S visible
22 Apr 9.8 02:58:10 14° ESE 02:58:10 14° ESE 02:59:47 10° E visible
22 Apr 7.6 04:35:37 16° WSW 04:38:55 42° NW 04:43:12 10° NNE visible
23 Apr 8.4 03:19:41 37° E 03:19:41 37° E 03:23:01 10° ENE visible
23 Apr 9.0 04:57:55 10° W 05:00:20 14° NW 05:02:44 10° NNW visible
